Torna al catalogo

DELTA 1 DEB

AttivoSSO
NORAD 12237·DEBRIS·🇺🇸 United States

Lanciato Mar 5, 1978 da Vandenberg Space Force Base

Loading…

Prossimi Passaggi (prossime 24 ore)

TLE

AggiornatoSource: Space-Track

Epoca: Sep 14, 2026, 10:50 UTC

1 12237U 78026CE  26257.45179683  .00005703  00000-0  30905-2 0  9997
2 12237  98.8109 341.5107 0241590 118.9804 243.5810 13.99021666258006

Traccia DELTA 1 DEB in tempo reale con AllMySat

Download on the App Store